UAE4PV LIMC-KJFK

Flight info

Callsign UAE4PV
Flight time N/A
Altitude 32000
Route AOSTA DCT ORSUD DCT MOLUS DCT UNKIR DCT DJL DCT OKRIX DCT AMODO DCT COHPA UM729 RESMI UN491 LGL UN502 JSY DCT LIZAD DCT LESLU DCT XETBO DCT LIMRI/M084F340 NATH PORTI/N0482F340 DCT KANNI DCT PLYMM PARCH4
Aircraft B77W/H-SDE2E3GHIJ1J3J4J5M1P2RWXYZ/LB1D1

Departure

Time 2026-05-08 08:09
Airport Milan Malpensa International Airport (LIMC)

Arrival

Time N/A
Airport John F. Kennedy International Airport (KJFK)
Time Latitude Longitude Altitude Speed Heading
2026-05-08 07:36 45.63034 8.71600 741 ft 0 kts 349°
2026-05-08 07:55 45.63033 8.71600 745 ft 0 kts 349°
2026-05-08 07:55 45.63014 8.71608 744 ft 4 kts 326°
2026-05-08 07:56 45.62996 8.71634 741 ft 4 kts 320°
2026-05-08 07:56 45.62977 8.71644 741 ft 4 kts
2026-05-08 07:56 45.62955 8.71629 741 ft 4 kts 56°
2026-05-08 07:56 45.62944 8.71595 741 ft 4 kts 75°
2026-05-08 07:57 45.62941 8.71578 742 ft 0 kts 79°
2026-05-08 08:00 45.62942 8.71582 745 ft 3 kts 79°
2026-05-08 08:01 45.62952 8.71654 744 ft 10 kts 79°
2026-05-08 08:01 45.62944 8.71744 742 ft 10 kts 139°
2026-05-08 08:01 45.62877 8.71768 742 ft 11 kts 169°
2026-05-08 08:01 45.62767 8.71798 744 ft 21 kts 169°
2026-05-08 08:02 45.62591 8.71846 742 ft 30 kts 169°
2026-05-08 08:02 45.62390 8.71902 745 ft 26 kts 169°
2026-05-08 08:02 45.62209 8.71952 743 ft 28 kts 169°
2026-05-08 08:02 45.62010 8.72007 744 ft 29 kts 169°
2026-05-08 08:03 45.61811 8.72063 744 ft 29 kts 169°
2026-05-08 08:03 45.61612 8.72117 744 ft 29 kts 169°
2026-05-08 08:03 45.61412 8.72172 742 ft 29 kts 169°
2026-05-08 08:03 45.61214 8.72228 744 ft 29 kts 169°
2026-05-08 08:04 45.61014 8.72282 743 ft 29 kts 169°
2026-05-08 08:04 45.60815 8.72337 744 ft 29 kts 169°
2026-05-08 08:04 45.60652 8.72428 743 ft 24 kts 125°
2026-05-08 08:04 45.60625 8.72666 743 ft 24 kts 96°
2026-05-08 08:05 45.60608 8.72906 744 ft 24 kts 96°
2026-05-08 08:05 45.60591 8.73147 744 ft 24 kts 94°
2026-05-08 08:05 45.60697 8.73305 743 ft 24 kts 22°
2026-05-08 08:05 45.60853 8.73394 743 ft 24 kts 18°
2026-05-08 08:06 45.61021 8.73373 744 ft 24 kts 349°
2026-05-08 08:06 45.61188 8.73326 745 ft 24 kts 349°
2026-05-08 08:06 45.61354 8.73280 744 ft 24 kts 349°
2026-05-08 08:06 45.61520 8.73234 745 ft 24 kts 349°
2026-05-08 08:07 45.61611 8.73252 744 ft 11 kts 58°
2026-05-08 08:07 45.61629 8.73363 745 ft 11 kts 79°
2026-05-08 08:07 45.61617 8.73471 741 ft 11 kts 118°
2026-05-08 08:07 45.61586 8.73575 746 ft 11 kts 100°
2026-05-08 08:08 45.61595 8.73687 742 ft 11 kts 80°
2026-05-08 08:08 45.61616 8.73735 741 ft 4 kts 15°
2026-05-08 08:08 45.61642 8.73730 744 ft 4 kts 349°
2026-05-08 08:08 45.61671 8.73722 742 ft 8 kts 349°
2026-05-08 08:09 45.61865 8.73668 743 ft 63 kts 349°
2026-05-08 08:09 45.62578 8.73472 745 ft 144 kts 349°
2026-05-08 08:09 45.63810 8.73129 828 ft 205 kts 350°
2026-05-08 08:09 45.65198 8.72880 1786 ft 199 kts
2026-05-08 08:10 45.66532 8.73420 2570 ft 206 kts 35°
2026-05-08 08:10 45.67460 8.74947 3164 ft 202 kts 69°
2026-05-08 08:10 45.67978 8.76779 3639 ft 200 kts 71°
2026-05-08 08:10 45.68501 8.78653 3938 ft 206 kts 59°
2026-05-08 08:11 45.69545 8.80076 4216 ft 210 kts 38°
2026-05-08 08:11 45.70725 8.81326 4668 ft 211 kts 39°
2026-05-08 08:11 45.71828 8.82701 5046 ft 212 kts 56°
2026-05-08 08:11 45.72249 8.84740 5127 ft 224 kts 96°
2026-05-08 08:12 45.71615 8.86773 5391 ft 232 kts 136°
2026-05-08 08:12 45.70192 8.87787 5867 ft 233 kts 174°
2026-05-08 08:12 45.68609 8.87382 6344 ft 235 kts 207°
2026-05-08 08:12 45.67313 8.85927 6744 ft 244 kts 227°
2026-05-08 08:13 45.66337 8.83933 7240 ft 246 kts 240°
2026-05-08 08:13 45.65605 8.81731 7761 ft 249 kts 246°
2026-05-08 08:13 45.64988 8.79401 8268 ft 250 kts 250°
2026-05-08 08:13 45.64526 8.77034 8883 ft 247 kts 259°
2026-05-08 08:14 45.64286 8.74589 9325 ft 250 kts 259°
2026-05-08 08:14 45.63800 8.72171 9603 ft 259 kts 253°
2026-05-08 08:14 45.63356 8.69593 9827 ft 275 kts 257°
2026-05-08 08:14 45.62956 8.66853 10139 ft 286 kts 258°
2026-05-08 08:15 45.62546 8.64032 10382 ft 303 kts 258°
2026-05-08 08:15 45.62095 8.60992 10555 ft 323 kts 257°
2026-05-08 08:15 45.61604 8.57754 10717 ft 344 kts 257°
2026-05-08 08:15 45.61075 8.54324 10951 ft 362 kts 257°
2026-05-08 08:16 45.60520 8.50766 11439 ft 372 kts 257°
2026-05-08 08:16 45.59950 8.47138 12109 ft 377 kts 257°
2026-05-08 08:16 45.59371 8.43463 12858 ft 380 kts 257°
2026-05-08 08:16 45.58786 8.39764 13611 ft 383 kts 257°
2026-05-08 08:17 45.58195 8.36045 14306 ft 386 kts 257°
2026-05-08 08:17 45.57717 8.32292 14905 ft 387 kts 266°
2026-05-08 08:17 45.58084 8.28466 15374 ft 394 kts 288°
2026-05-08 08:17 45.59039 8.24804 15901 ft 397 kts 289°
2026-05-08 08:18 45.59958 8.21054 16537 ft 400 kts 287°
2026-05-08 08:18 45.60834 8.17281 17254 ft 402 kts 287°
2026-05-08 08:18 45.61704 8.13484 17959 ft 404 kts 287°
2026-05-08 08:18 45.62579 8.09663 18575 ft 407 kts 286°
2026-05-08 08:19 45.63467 8.05800 19135 ft 410 kts 287°
2026-05-08 08:19 45.64361 8.01918 19714 ft 413 kts 286°
2026-05-08 08:19 45.65261 7.98014 20250 ft 414 kts 286°
2026-05-08 08:19 45.66163 7.94095 20790 ft 417 kts 286°
2026-05-08 08:20 45.67067 7.90145 21277 ft 421 kts 286°
2026-05-08 08:20 45.67980 7.86149 21825 ft 424 kts 286°
2026-05-08 08:20 45.68897 7.82129 22374 ft 426 kts 286°
2026-05-08 08:20 45.69816 7.78088 22930 ft 428 kts 286°
2026-05-08 08:21 45.70741 7.74014 23473 ft 432 kts 286°
2026-05-08 08:21 45.71668 7.69926 23918 ft 435 kts 286°
2026-05-08 08:21 45.72604 7.65783 24330 ft 438 kts 285°
2026-05-08 08:21 45.73543 7.61627 24756 ft 440 kts 285°
2026-05-08 08:22 45.74484 7.57450 25177 ft 441 kts 285°
2026-05-08 08:22 45.75426 7.53257 25612 ft 443 kts 285°
2026-05-08 08:22 45.76372 7.49046 26048 ft 445 kts 285°
2026-05-08 08:22 45.77322 7.44807 26464 ft 447 kts 284°
2026-05-08 08:23 45.78274 7.40552 26833 ft 450 kts 284°
2026-05-08 08:23 45.79401 7.36430 27093 ft 456 kts 296°
2026-05-08 08:23 45.81357 7.32717 27349 ft 469 kts 313°
2026-05-08 08:23 45.83953 7.29929 27657 ft 475 kts 323°
2026-05-08 08:24 45.86731 7.27324 27917 ft 479 kts 322°
2026-05-08 08:24 45.89480 7.24622 28190 ft 481 kts 321°
2026-05-08 08:24 45.92228 7.21850 28520 ft 483 kts 320°
2026-05-08 08:24 45.94971 7.19055 28856 ft 484 kts 320°
2026-05-08 08:25 45.97720 7.16244 29163 ft 485 kts 319°
2026-05-08 08:25 46.00466 7.13429 29575 ft 485 kts 319°
2026-05-08 08:25 46.03203 7.10618 30096 ft 482 kts 319°
2026-05-08 08:25 46.05921 7.07824 30542 ft 479 kts 319°
2026-05-08 08:26 46.08633 7.05032 30894 ft 478 kts 319°
2026-05-08 08:26 46.11339 7.02246 31162 ft 478 kts 319°
2026-05-08 08:26 46.14046 6.99455 31478 ft 478 kts 319°
2026-05-08 08:26 46.16742 6.96673 31815 ft 475 kts 319°
2026-05-08 08:27 46.19421 6.93902 31980 ft 474 kts 319°
2026-05-08 08:27 46.24805 6.88319 32041 ft 478 kts 319°
2026-05-08 08:28 46.30180 6.82737 32057 ft 473 kts 319°
2026-05-08 08:28 46.35516 6.77186 32035 ft 471 kts 319°
2026-05-08 08:29 46.40816 6.71626 32061 ft 470 kts 317°
2026-05-08 08:29 46.45356 6.65010 32063 ft 460 kts 303°
2026-05-08 08:30 46.48209 6.58569 32059 ft 455 kts 295°
2026-05-08 08:30 46.52876 6.46541 32065 ft 457 kts 295°
2026-05-08 08:31 46.56541 6.37179 32066 ft 460 kts 296°
2026-05-08 08:31 46.59204 6.30398 32050 ft 462 kts 296°
2026-05-08 08:32 46.62391 6.22268 32052 ft 463 kts 296°
2026-05-08 08:32 46.65577 6.14113 32030 ft 464 kts 296°
2026-05-08 08:33 46.68755 6.05950 32045 ft 463 kts 296°
2026-05-08 08:33 46.71930 5.97770 32019 ft 463 kts 296°
2026-05-08 08:34 46.75094 5.89595 32038 ft 463 kts 296°
2026-05-08 08:34 46.78254 5.81407 32040 ft 463 kts 296°
2026-05-08 08:35 46.81661 5.73452 32037 ft 466 kts 304°
2026-05-08 08:35 46.86032 5.66437 32032 ft 469 kts 314°
2026-05-08 08:36 46.90797 5.59994 32046 ft 470 kts 314°
2026-05-08 08:36 46.95592 5.53476 32044 ft 470 kts 314°
2026-05-08 08:37 47.00357 5.46921 32066 ft 470 kts 314°
2026-05-08 08:37 47.05116 5.40337 32045 ft 470 kts 314°
2026-05-08 08:38 47.09876 5.33732 32062 ft 471 kts 314°
2026-05-08 08:38 47.14635 5.27115 32049 ft 471 kts 314°
2026-05-08 08:39 47.19393 5.20483 32048 ft 471 kts 314°
2026-05-08 08:39 47.24113 5.13887 32048 ft 471 kts 314°
2026-05-08 08:40 47.28534 5.06836 32052 ft 467 kts 303°
2026-05-08 08:40 47.32188 4.98952 32052 ft 466 kts 301°
2026-05-08 08:41 47.35812 4.91038 32053 ft 466 kts 302°
2026-05-08 08:41 47.39457 4.83129 32045 ft 466 kts 302°
2026-05-08 08:42 47.43111 4.75220 32047 ft 465 kts 302°
2026-05-08 08:42 47.46734 4.67361 32039 ft 465 kts 302°
2026-05-08 08:43 47.50372 4.59450 32055 ft 465 kts 302°
2026-05-08 08:43 47.53997 4.51539 32046 ft 464 kts 302°
2026-05-08 08:44 47.57609 4.43635 32047 ft 463 kts 302°
2026-05-08 08:44 47.61217 4.35714 32038 ft 463 kts 302°
2026-05-08 08:45 47.64807 4.27811 32048 ft 462 kts 302°
2026-05-08 08:45 47.68393 4.19893 32044 ft 462 kts 301°
2026-05-08 08:46 47.71970 4.11973 32052 ft 461 kts 302°
2026-05-08 08:46 47.75537 4.04054 32054 ft 461 kts 301°
2026-05-08 08:47 47.79095 3.96130 32046 ft 460 kts 301°
2026-05-08 08:47 47.82643 3.88203 32055 ft 460 kts 301°
2026-05-08 08:48 47.86188 3.80262 32050 ft 461 kts 301°
2026-05-08 08:48 47.89728 3.72307 32046 ft 461 kts 301°
2026-05-08 08:49 47.93267 3.64337 32051 ft 461 kts 301°
2026-05-08 08:49 47.97053 3.56682 32051 ft 464 kts 309°
2026-05-08 08:50 48.01745 3.50023 32059 ft 467 kts 317°
2026-05-08 08:50 48.06706 3.43739 32051 ft 468 kts 317°
2026-05-08 08:51 48.11654 3.37413 32061 ft 468 kts 317°
2026-05-08 08:51 48.16581 3.31046 32050 ft 467 kts 316°
2026-05-08 08:52 48.21488 3.24675 32047 ft 467 kts 316°
2026-05-08 08:52 48.26385 3.18303 32052 ft 466 kts 316°
2026-05-08 08:53 48.31280 3.11915 32049 ft 465 kts 316°
2026-05-08 08:53 48.36162 3.05532 32057 ft 465 kts 316°
2026-05-08 08:54 48.40641 2.98746 32067 ft 460 kts 302°
2026-05-08 08:54 48.43515 2.90299 32047 ft 455 kts 285°
2026-05-08 08:55 48.45186 2.81100 32054 ft 456 kts 284°
2026-05-08 08:55 48.46929 2.71888 32057 ft 458 kts 284°
2026-05-08 08:56 48.48688 2.62731 32070 ft 458 kts 284°
2026-05-08 08:56 48.50453 2.53480 32070 ft 458 kts 284°
2026-05-08 08:57 48.52201 2.44254 32064 ft 457 kts 284°
2026-05-08 08:57 48.53937 2.35035 32058 ft 456 kts 284°
2026-05-08 08:58 48.55661 2.25844 32062 ft 455 kts 284°
2026-05-08 08:58 48.57299 2.16635 32061 ft 453 kts 281°
2026-05-08 08:59 48.58594 2.07329 32065 ft 452 kts 281°
2026-05-08 08:59 48.59862 1.98026 32064 ft 451 kts 281°
2026-05-08 09:00 48.61139 1.88745 32076 ft 451 kts 281°
2026-05-08 09:00 48.62406 1.79535 32066 ft 451 kts 281°
2026-05-08 09:01 48.63674 1.70254 32073 ft 450 kts 281°
2026-05-08 09:01 48.64934 1.60986 32062 ft 450 kts 281°
2026-05-08 09:02 48.66196 1.51719 32059 ft 449 kts 281°
2026-05-08 09:02 48.67449 1.42467 32054 ft 449 kts 281°
2026-05-08 09:03 48.68692 1.33226 32054 ft 448 kts 281°
2026-05-08 09:03 48.69920 1.23970 32066 ft 447 kts 281°
2026-05-08 09:04 48.71131 1.14773 32047 ft 444 kts 281°
2026-05-08 09:04 48.72329 1.05625 32049 ft 442 kts 281°
2026-05-08 09:05 48.73509 0.96566 32053 ft 440 kts 281°
2026-05-08 09:05 48.74688 0.87456 32051 ft 440 kts 281°
2026-05-08 09:06 48.75862 0.78358 32053 ft 439 kts 282°
2026-05-08 09:06 48.77030 0.69268 32036 ft 439 kts 282°
2026-05-08 09:07 48.78191 0.60184 32038 ft 438 kts 282°
2026-05-08 09:07 48.79408 0.51125 32033 ft 438 kts 285°
2026-05-08 09:08 48.81021 0.42277 32020 ft 438 kts 287°
2026-05-08 09:08 48.82642 0.33401 32019 ft 436 kts 287°
2026-05-08 09:09 48.84240 0.24552 32024 ft 434 kts 287°
2026-05-08 09:09 48.85819 0.15725 32029 ft 432 kts 287°
2026-05-08 09:10 48.87382 0.06937 32029 ft 431 kts 287°
2026-05-08 09:10 48.88940 -0.01867 32017 ft 431 kts 287°
2026-05-08 09:11 48.90482 -0.10615 32031 ft 431 kts 287°
2026-05-08 09:11 48.92026 -0.19414 32037 ft 431 kts 287°
2026-05-08 09:12 48.93558 -0.28230 32042 ft 431 kts 287°
2026-05-08 09:12 48.95049 -0.37077 32039 ft 432 kts 286°
2026-05-08 09:13 48.96529 -0.45940 32046 ft 432 kts 286°
2026-05-08 09:13 48.97996 -0.54748 32043 ft 432 kts 286°
2026-05-08 09:14 48.99470 -0.63625 32040 ft 433 kts 286°
2026-05-08 09:14 49.00938 -0.72510 32041 ft 433 kts 286°
2026-05-08 09:15 49.02399 -0.81403 32035 ft 433 kts 286°
2026-05-08 09:15 49.03857 -0.90324 32013 ft 433 kts 286°
2026-05-08 09:16 49.05305 -0.99223 32029 ft 433 kts 285°
2026-05-08 09:16 49.06749 -1.08154 32029 ft 434 kts 285°
2026-05-08 09:17 49.08190 -1.17104 32046 ft 435 kts 286°
2026-05-08 09:17 49.09642 -1.26079 32033 ft 435 kts 286°
2026-05-08 09:18 49.11084 -1.34963 32013 ft 435 kts 285°